Time,TemperatureF,DewpointF,PressureIn,WindDirection,WindDirectionDegrees,WindSpeedMPH,WindSpeedGustMPH,Humidity,HourlyPrecipIn,Conditions,Clouds,dailyrainin,SoftwareType,DateUTC
2013-06-29 00:03:00,65.1,63.0,29.56,WSW,255,1.0,3.0,91,0.00,,,0.00,weatherlink.com 1.10,2013-06-29 04:03:00,
2013-06-29 00:18:00,64.9,63.0,29.56,SW,236,1.0,3.0,92,0.00,,,0.00,weatherlink.com 1.10,2013-06-29 04:18:00,
2013-06-29 00:33:00,64.7,63.0,29.56,SW,221,1.0,2.0,93,0.00,,,0.00,weatherlink.com 1.10,2013-06-29 04:33:00,
2013-06-29 00:48:00,64.6,63.0,29.55,WSW,240,1.0,3.0,94,0.00,,,0.00,weatherlink.com 1.10,2013-06-29 04:48:00,
2013-06-29 01:03:00,64.7,63.0,29.55,West,274,1.0,3.0,94,0.00,,,0.00,weatherlink.com 1.10,2013-06-29 05:03:00,
2013-06-29 01:18:00,64.6,63.0,29.55,West,259,1.0,2.0,94,0.00,,,0.00,weatherlink.com 1.10,2013-06-29 05:18:00,
2013-06-29 01:33:00,64.5,63.0,29.54,SW,218,1.0,2.0,95,0.00,,,0.00,weatherlink.com 1.10,2013-06-29 05:33:00,
2013-06-29 01:48:00,64.2,63.0,29.54,SSW,212,0.0,1.0,95,0.00,,,0.00,weatherlink.com 1.10,2013-06-29 05:48:00,
2013-06-29 02:03:00,63.9,63.0,29.54,SSW,212,0.0,1.0,95,0.00,,,0.00,weatherlink.com 1.10,2013-06-29 06:03:00,
2013-06-29 02:18:00,63.4,62.0,29.54,SSW,213,0.0,0.0,95,0.00,,,0.00,weatherlink.com 1.10,2013-06-29 06:18:00,
2013-06-29 02:33:00,63.3,62.0,29.54,West,267,1.0,2.0,96,0.00,,,0.00,weatherlink.com 1.10,2013-06-29 06:33:00,
2013-06-29 02:58:00,63.7,63.0,29.54,West,277,1.0,3.0,96,0.00,,,0.00,weatherlink.com 1.10,2013-06-29 06:58:00,
2013-06-29 03:18:00,63.6,63.0,29.54,WSW,252,0.0,2.0,96,0.00,,,0.00,weatherlink.com 1.10,2013-06-29 07:18:00,
2013-06-29 03:33:00,63.4,62.0,29.54,WSW,246,2.0,3.0,96,0.00,,,0.00,weatherlink.com 1.10,2013-06-29 07:33:00,
2013-06-29 03:49:00,63.3,62.0,29.54,West,269,1.0,1.0,96,0.00,,,0.00,weatherlink.com 1.10,2013-06-29 07:49:00,
2013-06-29 04:03:00,63.1,62.0,29.54,West,264,0.0,1.0,96,0.00,,,0.00,weatherlink.com 1.10,2013-06-29 08:03:00,
2013-06-29 04:18:00,63.0,62.0,29.53,West,271,0.0,1.0,97,0.00,,,0.00,weatherlink.com 1.10,2013-06-29 08:18:00,
2013-06-29 04:33:00,62.8,62.0,29.53,West,271,0.0,0.0,97,0.00,,,0.00,weatherlink.com 1.10,2013-06-29 08:33:00,
2013-06-29 04:48:00,62.6,62.0,29.53,West,271,0.0,0.0,97,0.00,,,0.00,weatherlink.com 1.10,2013-06-29 08:48:00,
2013-06-29 05:04:00,62.3,62.0,29.54,West,271,0.0,0.0,97,0.00,,,0.00,weatherlink.com 1.10,2013-06-29 09:04:00,
2013-06-29 05:19:00,62.2,61.0,29.54,West,271,0.0,0.0,97,0.00,,,0.00,weatherlink.com 1.10,2013-06-29 09:19:00,
2013-06-29 05:34:00,62.3,62.0,29.54,West,271,0.0,0.0,97,0.00,,,0.00,weatherlink.com 1.10,2013-06-29 09:34:00,
2013-06-29 05:49:00,62.0,61.0,29.54,West,271,0.0,0.0,97,0.00,,,0.00,weatherlink.com 1.10,2013-06-29 09:49:00,
2013-06-29 06:04:00,61.5,61.0,29.55,West,272,0.0,0.0,97,0.00,,,0.00,weatherlink.com 1.10,2013-06-29 10:04:00,
2013-06-29 06:19:00,62.0,61.0,29.55,West,271,0.0,0.0,97,0.00,,,0.00,weatherlink.com 1.10,2013-06-29 10:19:00,
2013-06-29 06:34:00,62.0,61.0,29.55,West,271,0.0,0.0,97,0.00,,,0.00,weatherlink.com 1.10,2013-06-29 10:34:00,
2013-06-29 06:49:00,61.5,61.0,29.55,West,271,0.0,0.0,97,0.00,,,0.00,weatherlink.com 1.10,2013-06-29 10:49:00,
2013-06-29 07:04:00,62.1,62.0,29.55,West,277,1.0,1.0,98,0.00,,,0.00,weatherlink.com 1.10,2013-06-29 11:04:00,
2013-06-29 07:19:00,62.4,62.0,29.55,West,278,1.0,2.0,97,0.00,,,0.00,weatherlink.com 1.10,2013-06-29 11:19:00,
2013-06-29 07:34:00,62.8,62.0,29.56,West,279,2.0,3.0,97,0.00,,,0.00,weatherlink.com 1.10,2013-06-29 11:34:00,
2013-06-29 07:49:00,62.9,62.0,29.56,NW,313,2.0,5.0,97,0.00,,,0.00,weatherlink.com 1.10,2013-06-29 11:49:00,
2013-06-29 08:04:00,62.9,62.0,29.56,WNW,302,1.0,4.0,97,0.00,,,0.00,weatherlink.com 1.10,2013-06-29 12:04:00,
2013-06-29 08:19:00,63.4,63.0,29.56,West,278,2.0,4.0,97,0.00,,,0.00,weatherlink.com 1.10,2013-06-29 12:19:00,
2013-06-29 08:34:00,63.6,62.0,29.56,WNW,288,2.0,5.0,95,0.00,,,0.00,weatherlink.com 1.10,2013-06-29 12:34:00,
2013-06-29 08:49:00,64.6,63.0,29.57,West,280,2.0,5.0,93,0.00,,,0.00,weatherlink.com 1.10,2013-06-29 12:49:00,
2013-06-29 09:04:00,65.8,63.0,29.57,WNW,287,3.0,5.0,91,0.00,,,0.00,weatherlink.com 1.10,2013-06-29 13:04:00,
2013-06-29 09:19:00,66.5,63.0,29.57,WNW,284,2.0,6.0,88,0.00,,,0.00,weatherlink.com 1.10,2013-06-29 13:19:00,
2013-06-29 09:34:00,67.7,63.0,29.57,WNW,287,0.0,6.0,86,0.00,,,0.00,weatherlink.com 1.10,2013-06-29 13:34:00,
2013-06-29 09:49:00,68.1,64.0,29.57,WNW,284,2.0,5.0,85,0.00,,,0.00,weatherlink.com 1.10,2013-06-29 13:49:00,
2013-06-29 10:04:00,68.1,64.0,29.57,North,8,0.0,5.0,85,0.00,,,0.00,weatherlink.com 1.10,2013-06-29 14:04:00,
2013-06-29 10:19:00,68.1,63.0,29.57,NNW,332,2.0,4.0,84,0.00,,,0.00,weatherlink.com 1.10,2013-06-29 14:19:00,
2013-06-29 10:34:00,69.4,64.0,29.57,WNW,290,4.0,5.0,83,0.00,,,0.00,weatherlink.com 1.10,2013-06-29 14:34:00,
2013-06-29 10:49:00,69.2,64.0,29.57,NNE,23,1.0,4.0,82,0.00,,,0.00,weatherlink.com 1.10,2013-06-29 14:49:00,
2013-06-29 11:04:00,69.0,64.0,29.57,West,274,2.0,5.0,83,0.00,,,0.00,weatherlink.com 1.10,2013-06-29 15:04:00,
2013-06-29 11:19:00,68.9,64.0,29.57,West,266,2.0,4.0,84,0.00,,,0.00,weatherlink.com 1.10,2013-06-29 15:19:00,
2013-06-29 11:34:00,69.7,63.0,29.57,NE,50,0.0,5.0,80,0.00,,,0.00,weatherlink.com 1.10,2013-06-29 15:34:00,
2013-06-29 11:49:00,70.4,63.0,29.57,NW,308,2.0,4.0,78,0.00,,,0.00,weatherlink.com 1.10,2013-06-29 15:49:00,
2013-06-29 12:04:00,71.3,64.0,29.57,ENE,62,2.0,5.0,78,0.00,,,0.00,weatherlink.com 1.10,2013-06-29 16:04:00,
2013-06-29 12:19:00,71.6,64.0,29.57,WNW,297,5.0,6.0,77,0.00,,,0.00,weatherlink.com 1.10,2013-06-29 16:19:00,
2013-06-29 12:34:00,72.5,64.0,29.57,NW,304,7.0,7.0,75,0.00,,,0.00,weatherlink.com 1.10,2013-06-29 16:34:00,
2013-06-29 12:49:00,72.7,65.0,29.57,North,5,2.0,7.0,76,0.00,,,0.00,weatherlink.com 1.10,2013-06-29 16:49:00,
2013-06-29 13:04:00,73.5,65.0,29.57,NW,315,2.0,6.0,74,0.00,,,0.00,weatherlink.com 1.10,2013-06-29 17:04:00,
2013-06-29 13:19:00,74.0,65.0,29.57,NNE,15,2.0,7.0,73,0.00,,,0.00,weatherlink.com 1.10,2013-06-29 17:19:00,
2013-06-29 13:34:00,73.5,65.0,29.57,NW,323,1.0,5.0,75,0.00,,,0.00,weatherlink.com 1.10,2013-06-29 17:34:00,
2013-06-29 13:49:00,71.6,65.0,29.57,NW,309,3.0,7.0,80,0.00,,,0.00,weatherlink.com 1.10,2013-06-29 17:49:00,
2013-06-29 14:04:00,71.1,65.0,29.57,NW,316,7.0,8.0,80,0.00,,,0.00,weatherlink.com 1.10,2013-06-29 18:04:00,
2013-06-29 14:19:00,70.9,64.0,29.57,NW,309,4.0,8.0,79,0.00,,,0.00,weatherlink.com 1.10,2013-06-29 18:19:00,
2013-06-29 14:34:00,71.3,65.0,29.57,West,274,4.0,6.0,79,0.00,,,0.00,weatherlink.com 1.10,2013-06-29 18:34:00,
2013-06-29 14:50:00,71.3,64.0,29.57,WNW,285,2.0,9.0,78,0.00,,,0.00,weatherlink.com 1.10,2013-06-29 18:50:00,
2013-06-29 15:05:00,71.5,65.0,29.57,WNW,282,1.0,6.0,79,0.00,,,0.00,weatherlink.com 1.10,2013-06-29 19:05:00,
2013-06-29 15:35:00,72.3,65.0,29.58,WNW,284,3.0,5.0,78,0.00,,,0.00,weatherlink.com 1.10,2013-06-29 19:35:00,
2013-06-29 15:50:00,72.0,65.0,29.58,WNW,282,0.0,3.0,78,0.00,,,0.00,weatherlink.com 1.10,2013-06-29 19:50:00,
2013-06-29 16:05:00,72.4,65.0,29.58,SW,223,0.0,2.0,78,0.00,,,0.00,weatherlink.com 1.10,2013-06-29 20:05:00,
2013-06-29 16:20:00,73.3,66.0,29.58,SE,129,1.0,3.0,77,0.00,,,0.00,weatherlink.com 1.10,2013-06-29 20:20:00,
2013-06-29 16:35:00,71.3,65.0,29.58,ENE,76,1.0,8.0,81,0.00,,,0.00,weatherlink.com 1.10,2013-06-29 20:35:00,
2013-06-29 16:50:00,71.2,64.0,29.59,SE,127,1.0,6.0,77,0.00,,,0.00,weatherlink.com 1.10,2013-06-29 20:50:00,
2013-06-29 17:05:00,71.8,63.0,29.59,ESE,111,3.0,3.0,74,0.00,,,0.00,weatherlink.com 1.10,2013-06-29 21:05:00,
2013-06-29 17:20:00,72.0,63.0,29.59,ESE,115,2.0,3.0,74,0.00,,,0.00,weatherlink.com 1.10,2013-06-29 21:20:00,
2013-06-29 17:35:00,72.7,63.0,29.59,SE,135,1.0,3.0,71,0.00,,,0.00,weatherlink.com 1.10,2013-06-29 21:35:00,
2013-06-29 17:50:00,72.0,64.0,29.59,WNW,283,3.0,3.0,76,0.00,,,0.00,weatherlink.com 1.10,2013-06-29 21:50:00,
2013-06-29 18:05:00,71.7,65.0,29.59,NNE,17,1.0,3.0,78,0.00,,,0.00,weatherlink.com 1.10,2013-06-29 22:05:00,
2013-06-29 18:20:00,71.0,64.0,29.59,NW,317,4.0,9.0,79,0.00,,,0.00,weatherlink.com 1.10,2013-06-29 22:20:00,
2013-06-29 18:35:00,68.5,63.0,29.60,WNW,296,3.0,8.0,81,0.00,,,0.00,weatherlink.com 1.10,2013-06-29 22:35:00,
2013-06-29 18:50:00,67.6,62.0,29.61,WNW,302,4.0,9.0,83,0.00,,,0.00,weatherlink.com 1.10,2013-06-29 22:50:00,
2013-06-29 19:05:00,67.4,63.0,29.61,WNW,288,7.0,7.0,85,0.00,,,0.00,weatherlink.com 1.10,2013-06-29 23:05:00,
2013-06-29 19:20:00,67.9,64.0,29.62,WNW,285,3.0,8.0,86,0.00,,,0.00,weatherlink.com 1.10,2013-06-29 23:20:00,
2013-06-29 19:35:00,68.3,64.0,29.62,NW,305,3.0,9.0,86,0.00,,,0.00,weatherlink.com 1.10,2013-06-29 23:35:00,
2013-06-29 19:50:00,68.1,64.0,29.62,North,356,4.0,7.0,87,0.00,,,0.00,weatherlink.com 1.10,2013-06-29 23:50:00,
2013-06-29 20:05:00,67.9,64.0,29.62,NW,323,1.0,6.0,87,0.00,,,0.00,weatherlink.com 1.10,2013-06-30 00:05:00,
2013-06-29 20:20:00,67.8,64.0,29.62,ENE,64,3.0,5.0,86,0.00,,,0.00,weatherlink.com 1.10,2013-06-30 00:20:00,
2013-06-29 20:35:00,67.9,64.0,29.63,North,4,2.0,5.0,87,0.00,,,0.00,weatherlink.com 1.10,2013-06-30 00:35:00,
2013-06-29 20:50:00,67.7,63.0,29.64,NNE,25,3.0,5.0,86,0.00,,,0.00,weatherlink.com 1.10,2013-06-30 00:50:00,
2013-06-29 21:05:00,67.5,64.0,29.65,North,9,1.0,7.0,87,0.00,,,0.00,weatherlink.com 1.10,2013-06-30 01:05:00,
2013-06-29 21:20:00,66.6,62.0,29.65,NE,40,2.0,7.0,86,0.00,,,0.00,weatherlink.com 1.10,2013-06-30 01:20:00,
2013-06-29 21:35:00,65.7,62.0,29.65,NW,319,0.0,5.0,89,0.01,,,0.01,weatherlink.com 1.10,2013-06-30 01:35:00,
2013-06-29 21:50:00,65.2,62.0,29.66,North,5,2.0,5.0,90,0.02,,,0.02,weatherlink.com 1.10,2013-06-30 01:50:00,
2013-06-29 22:05:00,64.9,62.0,29.66,NNE,23,3.0,7.0,91,0.02,,,0.02,weatherlink.com 1.10,2013-06-30 02:05:00,
2013-06-29 22:20:00,64.9,63.0,29.66,NE,44,4.0,4.0,92,0.02,,,0.02,weatherlink.com 1.10,2013-06-30 02:20:00,
2013-06-29 22:35:00,64.9,63.0,29.67,North,5,2.0,6.0,93,0.01,,,0.02,weatherlink.com 1.10,2013-06-30 02:35:00,
2013-06-29 22:50:00,64.7,63.0,29.68,North,11,1.0,3.0,93,0.00,,,0.02,weatherlink.com 1.10,2013-06-30 02:50:00,
2013-06-29 23:05:00,64.7,63.0,29.68,NNE,15,1.0,4.0,94,0.02,,,0.04,weatherlink.com 1.10,2013-06-30 03:05:00,
2013-06-29 23:20:00,64.5,63.0,29.68,NNE,25,1.0,3.0,94,0.02,,,0.04,weatherlink.com 1.10,2013-06-30 03:20:00,
2013-06-29 23:35:00,64.5,63.0,29.68,North,351,0.0,5.0,95,0.02,,,0.04,weatherlink.com 1.10,2013-06-30 03:35:00,
2013-06-29 23:50:00,64.5,63.0,29.68,North,4,2.0,6.0,95,0.02,,,0.04,weatherlink.com 1.10,2013-06-30 03:50:00,